This demonstration page uses our WeatherBlox Daily Observations layout. Learn more.

Left ArrowRight Arrow

Hourly Observations for April 5, 2020

Temp ( °F °C ) Dew Point ( °F °C ) Humidity (%) Winds ( mph kmh ) Pressure ( in mb ) Visibility ( mi km ) Precip ( " mm )
12:52 am 00:52 Mostly Clear 35 1.7 27 -2.8 72 72 SE 6 9 30.14 1021 10 16 0.00 0.00
1:52 am 01:52 Clear 35 1.7 28 -2.2 76 76 SSE 6 9 30.14 1021 10 16 0.00 0.00
2:52 am 02:52 Clear 36 2.2 28 -2.2 73 73 Calm 30.13 1020 10 16 0.00 0.00
3:52 am 03:52 Clear 32 0 29 -1.7 88 88 ESE 5 7 30.12 1020 10 16 0.00 0.00
4:52 am 04:52 Clear 31 -0.6 29 -1.7 92 92 ESE 7 11 30.11 1020 10 16 0.00 0.00
5:52 am 05:52 Clear 32 0 29 -1.7 88 88 S 5 7 30.11 1020 10 16 0.00 0.00
6:52 am 06:52 Clear with Mist and Fog 31 -0.6 30 -1.1 96 96 Calm 30.13 1020 6 10 0.00 0.00
7:52 am 07:52 Partly Cloudy with Mist and Fog 32 0 30 -1.1 92 92 SE 3 6 30.15 1021 6 10 0.00 0.00
8:52 am 08:52 Mostly Sunny 37 2.8 34 1.1 89 89 SSE 5 7 30.15 1021 8 13 0.00 0.00
9:52 am 09:52 Mostly Sunny 44 6.7 35 1.7 71 71 S 9 15 30.12 1020 10 16 0.00 0.00
10:52 am 10:52 Partly Cloudy 48 8.9 36 2.2 63 63 SSE 12 19 30.11 1020 10 16 0.00 0.00
11:52 am 11:52 Mostly Cloudy 52 11.1 34 1.1 50 50 S 13 20 30.13 1020 10 16 0.00 0.00
12:52 pm 12:52 Mostly Cloudy 54 12.2 34 1.1 47 47 S 10 17 30.10 1019 10 16 0.00 0.00
1:52 pm 13:52 Mostly Cloudy 57 13.9 33 0.6 41 41 S 12 19 30.08 1019 10 16 0.00 0.00
2:52 pm 14:52 Mostly Cloudy 59 15 31 -0.6 35 35 SSE 17 28 30.03 1017 10 16 0.00 0.00
3:52 pm 15:52 Mostly Cloudy 61 16.1 30 -1.1 31 31 SSE 12 19 30.01 1016 10 16 0.00 0.00
4:52 pm 16:52 Partly Cloudy 62 16.7 32 0 32 32 S 15 24 29.99 1016 10 16 0.00 0.00
5:52 pm 17:52 Partly Cloudy 62 16.7 37 2.8 40 40 SSE 17 28 29.96 1015 10 16 0.00 0.00
6:52 pm 18:52 Mostly Cloudy 60 15.6 39 3.9 46 46 SSE 15 24 29.96 1014 10 16 0.00 0.00
7:52 pm 19:52 Mostly Cloudy 58 14.4 41 5 53 53 SSE 15 24 29.95 1014 10 16 0.00 0.00
8:52 pm 20:52 Mostly Cloudy 55 12.8 42 5.6 62 62 SE 14 22 29.94 1014 10 16 0.00 0.00
9:52 pm 21:52 Partly Cloudy 54 12.2 43 6.1 67 67 SSE 17 28 29.96 1014 10 16 0.00 0.00
10:52 pm 22:52 Mostly Cloudy 51 10.6 44 6.7 77 77 SSE 14 22 29.97 1015 10 16 0.00 0.00
11:52 pm 23:52 Cloudy 52 11.1 45 7.2 77 77 SE 18 30 29.97 1015 10 16 0.00 0.00

Powered by AerisWeather